WAT251 KCLT-KBOS

Flight info

Callsign WAT251
Flight time 1h 50m
Altitude 37000
Route BARMY5 RDU DCT NOWAE Q87 GEARS DCT BBOBO Q22 RBV Q419 JFK ROBUC3
Aircraft B739/M-SDE2E3FGHIRWXY/LB1

Departure

Time 2026-05-05 03:09
Airport Charlotte Douglas International Airport (KCLT)

Arrival

Time 2026-05-05 04:59
Airport Boston Logan International Airport (KBOS)
Time Latitude Longitude Altitude Speed Heading
2026-05-05 02:34 35.21794 -80.94148 725 ft 0 kts 288°
2026-05-05 03:00 35.21791 -80.94138 725 ft 2 kts 288°
2026-05-05 03:00 35.21786 -80.94120 725 ft 2 kts 288°
2026-05-05 03:00 35.21781 -80.94103 726 ft 2 kts 288°
2026-05-05 03:00 35.21776 -80.94087 726 ft 1 kts 313°
2026-05-05 03:01 35.21763 -80.94080 726 ft 2 kts
2026-05-05 03:01 35.21753 -80.94084 725 ft 0 kts 44°
2026-05-05 03:01 35.21748 -80.94090 725 ft 1 kts 49°
2026-05-05 03:01 35.21747 -80.94092 725 ft 0 kts 48°
2026-05-05 03:04 35.21761 -80.94074 726 ft 4 kts 49°
2026-05-05 03:04 35.21786 -80.94025 727 ft 9 kts 62°
2026-05-05 03:04 35.21823 -80.93938 730 ft 13 kts 65°
2026-05-05 03:04 35.21875 -80.93852 731 ft 11 kts 49°
2026-05-05 03:05 35.21927 -80.93780 733 ft 12 kts 49°
2026-05-05 03:05 35.21979 -80.93713 734 ft 9 kts 23°
2026-05-05 03:05 35.22040 -80.93713 735 ft 8 kts 357°
2026-05-05 03:05 35.22119 -80.93720 736 ft 11 kts 355°
2026-05-05 03:06 35.22191 -80.93726 737 ft 9 kts 355°
2026-05-05 03:06 35.22255 -80.93733 737 ft 9 kts 356°
2026-05-05 03:06 35.22316 -80.93737 737 ft 8 kts 357°
2026-05-05 03:06 35.22374 -80.93741 737 ft 8 kts 357°
2026-05-05 03:07 35.22441 -80.93745 737 ft 12 kts 357°
2026-05-05 03:07 35.22501 -80.93729 737 ft 7 kts 57°
2026-05-05 03:07 35.22508 -80.93667 738 ft 6 kts 89°
2026-05-05 03:07 35.22485 -80.93623 738 ft 6 kts 157°
2026-05-05 03:08 35.22350 -80.93609 738 ft 48 kts 176°
2026-05-05 03:08 35.21788 -80.93559 735 ft 111 kts 176°
2026-05-05 03:08 35.20828 -80.93478 720 ft 165 kts 176°
2026-05-05 03:08 35.19647 -80.93359 1320 ft 165 kts 177°
2026-05-05 03:09 35.18544 -80.93205 2034 ft 165 kts 177°
2026-05-05 03:09 35.17367 -80.93022 2558 ft 174 kts 178°
2026-05-05 03:09 35.16133 -80.92906 2981 ft 186 kts 181°
2026-05-05 03:09 35.14759 -80.92828 3328 ft 206 kts 180°
2026-05-05 03:10 35.13310 -80.92408 3679 ft 231 kts 154°
2026-05-05 03:10 35.12185 -80.90887 4098 ft 260 kts 117°
2026-05-05 03:10 35.11963 -80.88618 4575 ft 282 kts 82°
2026-05-05 03:10 35.12666 -80.86382 5278 ft 288 kts 63°
2026-05-05 03:11 35.13607 -80.84237 6027 ft 289 kts 63°
2026-05-05 03:11 35.14484 -80.82013 6783 ft 291 kts 66°
2026-05-05 03:11 35.15248 -80.79753 7462 ft 294 kts 69°
2026-05-05 03:11 35.15974 -80.77393 7949 ft 303 kts 70°
2026-05-05 03:12 35.16695 -80.74973 8735 ft 302 kts 70°
2026-05-05 03:12 35.17411 -80.72562 9499 ft 302 kts 70°
2026-05-05 03:12 35.18128 -80.70162 10150 ft 305 kts 70°
2026-05-05 03:12 35.18868 -80.67698 10573 ft 318 kts 70°
2026-05-05 03:13 35.19654 -80.65090 10933 ft 333 kts 69°
2026-05-05 03:13 35.20471 -80.62379 11279 ft 347 kts 69°
2026-05-05 03:13 35.21320 -80.59560 11600 ft 363 kts 69°
2026-05-05 03:13 35.22211 -80.56601 11952 ft 376 kts 69°
2026-05-05 03:14 35.23123 -80.53566 12300 ft 391 kts 69°
2026-05-05 03:14 35.24081 -80.50376 12572 ft 406 kts 69°
2026-05-05 03:14 35.25035 -80.47067 13015 ft 416 kts 72°
2026-05-05 03:14 35.25749 -80.43613 13593 ft 421 kts 77°
2026-05-05 03:15 35.26275 -80.40121 14234 ft 425 kts 80°
2026-05-05 03:15 35.26727 -80.36526 14847 ft 430 kts 81°
2026-05-05 03:15 35.27155 -80.32877 15504 ft 434 kts 82°
2026-05-05 03:15 35.27587 -80.29201 16099 ft 439 kts 81°
2026-05-05 03:16 35.28029 -80.25542 16712 ft 444 kts 81°
2026-05-05 03:16 35.28496 -80.21774 17277 ft 449 kts 81°
2026-05-05 03:16 35.28979 -80.17962 17852 ft 453 kts 80°
2026-05-05 03:16 35.29484 -80.14108 18376 ft 458 kts 79°
2026-05-05 03:17 35.30098 -80.10325 18978 ft 461 kts 76°
2026-05-05 03:17 35.30951 -80.06479 19516 ft 465 kts 72°
2026-05-05 03:17 35.31954 -80.02702 20093 ft 469 kts 70°
2026-05-05 03:17 35.33047 -79.98914 20635 ft 473 kts 69°
2026-05-05 03:18 35.34181 -79.95121 21167 ft 477 kts 68°
2026-05-05 03:18 35.35339 -79.91293 21703 ft 480 kts 68°
2026-05-05 03:18 35.36491 -79.87472 22168 ft 485 kts 69°
2026-05-05 03:18 35.37659 -79.83569 22684 ft 488 kts 69°
2026-05-05 03:19 35.39994 -79.75675 23697 ft 495 kts 69°
2026-05-05 03:19 35.41165 -79.71677 24223 ft 497 kts 69°
2026-05-05 03:19 35.42330 -79.67680 24679 ft 501 kts 69°
2026-05-05 03:20 35.43503 -79.63641 25176 ft 503 kts 69°
2026-05-05 03:20 35.44668 -79.59611 25942 ft 499 kts 69°
2026-05-05 03:20 35.45845 -79.55533 26621 ft 497 kts 69°
2026-05-05 03:20 35.46982 -79.51583 27196 ft 497 kts 69°
2026-05-05 03:21 35.48130 -79.47591 27729 ft 497 kts 69°
2026-05-05 03:21 35.49288 -79.43558 28290 ft 497 kts 69°
2026-05-05 03:21 35.50436 -79.39552 28861 ft 496 kts 69°
2026-05-05 03:21 35.51573 -79.35583 29397 ft 495 kts 68°
2026-05-05 03:22 35.52722 -79.31568 29884 ft 495 kts 69°
2026-05-05 03:22 35.53865 -79.27565 30366 ft 494 kts 69°
2026-05-05 03:22 35.55002 -79.23582 30840 ft 494 kts 69°
2026-05-05 03:22 35.56134 -79.19608 31249 ft 495 kts 69°
2026-05-05 03:23 35.57330 -79.15643 31643 ft 495 kts 66°
2026-05-05 03:23 35.58726 -79.11774 32039 ft 493 kts 61°
2026-05-05 03:23 35.60388 -79.08153 32439 ft 491 kts 54°
2026-05-05 03:23 35.62362 -79.04713 32842 ft 488 kts 48°
2026-05-05 03:24 35.64583 -79.01580 33267 ft 483 kts 42°
2026-05-05 03:24 35.67020 -78.98762 33637 ft 480 kts 36°
2026-05-05 03:24 35.69581 -78.96184 34033 ft 478 kts 33°
2026-05-05 03:24 35.72217 -78.93666 34405 ft 477 kts 33°
2026-05-05 03:25 35.74840 -78.91160 34725 ft 477 kts 33°
2026-05-05 03:25 35.77414 -78.88639 35024 ft 477 kts 34°
2026-05-05 03:25 35.79982 -78.86046 35350 ft 476 kts 35°
2026-05-05 03:25 35.82534 -78.83395 35685 ft 474 kts 36°
2026-05-05 03:26 35.85030 -78.80751 35960 ft 474 kts 36°
2026-05-05 03:26 35.87495 -78.78104 36194 ft 474 kts 36°
2026-05-05 03:26 35.89996 -78.75432 36436 ft 474 kts 36°
2026-05-05 03:26 35.92493 -78.72800 36744 ft 473 kts 36°
2026-05-05 03:27 35.94999 -78.70180 37029 ft 473 kts 36°
2026-05-05 03:27 35.97516 -78.67556 37042 ft 475 kts 36°
2026-05-05 03:27 36.02520 -78.62326 37043 ft 471 kts 36°
2026-05-05 03:28 36.07541 -78.57056 37044 ft 473 kts 36°
2026-05-05 03:28 36.12518 -78.51813 37036 ft 471 kts 36°
2026-05-05 03:29 36.17478 -78.46571 37038 ft 472 kts 36°
2026-05-05 03:29 36.22485 -78.41270 37037 ft 472 kts 36°
2026-05-05 03:30 36.27456 -78.35997 37027 ft 472 kts 36°
2026-05-05 03:30 36.32428 -78.30713 37023 ft 472 kts 37°
2026-05-05 03:31 36.37405 -78.25414 37018 ft 471 kts 37°
2026-05-05 03:31 36.42284 -78.19968 37016 ft 472 kts 39°
2026-05-05 03:32 36.47077 -78.14292 37023 ft 473 kts 40°
2026-05-05 03:32 36.51810 -78.08637 37011 ft 473 kts 40°
2026-05-05 03:33 36.56536 -78.03011 37029 ft 474 kts 40°
2026-05-05 03:33 36.61305 -77.97351 37030 ft 472 kts 40°
2026-05-05 03:34 36.66053 -77.91724 37026 ft 472 kts 40°
2026-05-05 03:34 36.70804 -77.86093 37022 ft 471 kts 40°
2026-05-05 03:35 36.75548 -77.80462 37022 ft 472 kts 40°
2026-05-05 03:35 36.80300 -77.74814 37013 ft 473 kts 40°
2026-05-05 03:36 36.85035 -77.69179 37010 ft 471 kts 40°
2026-05-05 03:36 36.89772 -77.63537 36998 ft 472 kts 40°
2026-05-05 03:37 36.94533 -77.57855 36999 ft 472 kts 40°
2026-05-05 03:37 36.99274 -77.52184 36996 ft 471 kts 40°
2026-05-05 03:38 37.03984 -77.46538 37006 ft 470 kts 40°
2026-05-05 03:38 37.08802 -77.41017 37001 ft 469 kts 35°
2026-05-05 03:39 37.14400 -77.36996 36997 ft 459 kts 18°
2026-05-05 03:39 37.20363 -77.34283 37005 ft 457 kts 14°
2026-05-05 03:40 37.26402 -77.31814 36995 ft 457 kts 14°
2026-05-05 03:40 37.32420 -77.29317 36995 ft 456 kts 14°
2026-05-05 03:41 37.38448 -77.26752 36994 ft 458 kts 15°
2026-05-05 03:41 37.44441 -77.24160 36991 ft 456 kts 15°
2026-05-05 03:42 37.50451 -77.21542 36992 ft 457 kts 15°
2026-05-05 03:42 37.56439 -77.18927 36986 ft 456 kts 15°
2026-05-05 03:43 37.62432 -77.16300 36990 ft 455 kts 15°
2026-05-05 03:43 37.68407 -77.13581 36983 ft 456 kts 19°
2026-05-05 03:44 37.74153 -77.10115 36981 ft 460 kts 24°
2026-05-05 03:44 37.79750 -77.06248 36979 ft 460 kts 26°
2026-05-05 03:45 37.85332 -77.02303 36979 ft 459 kts 26°
2026-05-05 03:45 37.90900 -76.98385 36989 ft 459 kts 26°
2026-05-05 03:46 37.96454 -76.94498 36988 ft 457 kts 26°
2026-05-05 03:46 38.02049 -76.90592 36979 ft 457 kts 25°
2026-05-05 03:47 38.07605 -76.86714 36984 ft 458 kts 25°
2026-05-05 03:47 38.13180 -76.82819 36982 ft 458 kts 25°
2026-05-05 03:48 38.18753 -76.78919 36975 ft 459 kts 26°
2026-05-05 03:48 38.24261 -76.74790 36971 ft 461 kts 31°
2026-05-05 03:49 38.29379 -76.69829 36969 ft 463 kts 37°
2026-05-05 03:49 38.34269 -76.64569 36964 ft 463 kts 38°
2026-05-05 03:50 38.39145 -76.59220 36962 ft 464 kts 38°
2026-05-05 03:50 38.44053 -76.53846 36962 ft 463 kts 37°
2026-05-05 03:51 38.48956 -76.48543 36957 ft 463 kts 37°
2026-05-05 03:51 38.53873 -76.43256 36960 ft 463 kts 37°
2026-05-05 03:52 38.58786 -76.37972 36960 ft 463 kts 37°
2026-05-05 03:52 38.63688 -76.32687 36948 ft 462 kts 37°
2026-05-05 03:53 38.68624 -76.27354 36952 ft 462 kts 37°
2026-05-05 03:53 38.73508 -76.22067 36945 ft 463 kts 37°
2026-05-05 03:54 38.78423 -76.16736 36956 ft 462 kts 37°
2026-05-05 03:54 38.83308 -76.11429 36950 ft 462 kts 38°
2026-05-05 03:55 38.88206 -76.06095 36955 ft 462 kts 38°
2026-05-05 03:55 38.93107 -76.00746 36947 ft 460 kts 38°
2026-05-05 03:56 38.97961 -75.95394 36944 ft 461 kts 39°
2026-05-05 03:56 39.02679 -75.89844 36952 ft 462 kts 40°
2026-05-05 03:57 39.07383 -75.84167 36948 ft 463 kts 40°
2026-05-05 03:57 39.12042 -75.78542 36943 ft 462 kts 40°
2026-05-05 03:58 39.16743 -75.72883 36943 ft 463 kts 40°
2026-05-05 03:58 39.21433 -75.67248 36945 ft 463 kts 40°
2026-05-05 03:59 39.26151 -75.61578 36942 ft 462 kts 40°
2026-05-05 03:59 39.30867 -75.55902 36942 ft 463 kts 40°
2026-05-05 04:00 39.35573 -75.50230 36936 ft 463 kts 40°
2026-05-05 04:00 39.40258 -75.44571 36944 ft 464 kts 40°
2026-05-05 04:01 39.44949 -75.38895 36940 ft 463 kts 40°
2026-05-05 04:01 39.49657 -75.33189 36942 ft 463 kts 40°
2026-05-05 04:02 39.54313 -75.27536 36946 ft 463 kts 40°
2026-05-05 04:02 39.59014 -75.21815 36944 ft 463 kts 40°
2026-05-05 04:03 39.63715 -75.16083 36946 ft 463 kts 40°
2026-05-05 04:03 39.68378 -75.10394 36932 ft 462 kts 40°
2026-05-05 04:04 39.73180 -75.04856 36947 ft 462 kts 38°
2026-05-05 04:04 39.78035 -74.99462 36937 ft 461 kts 38°
2026-05-05 04:05 39.82920 -74.94022 36944 ft 461 kts 38°
2026-05-05 04:05 39.87751 -74.88591 36928 ft 460 kts 38°
2026-05-05 04:06 39.92684 -74.83353 36939 ft 459 kts 33°
2026-05-05 04:06 39.97887 -74.78540 36932 ft 456 kts 31°
2026-05-05 04:07 40.03070 -74.73782 36938 ft 458 kts 35°
2026-05-05 04:07 40.07698 -74.68075 36935 ft 462 kts 44°
2026-05-05 04:08 40.12009 -74.61835 36936 ft 463 kts 45°
2026-05-05 04:08 40.16250 -74.55548 36931 ft 463 kts 45°
2026-05-05 04:09 40.20543 -74.49348 36932 ft 461 kts 41°
2026-05-05 04:09 40.25320 -74.43802 36927 ft 458 kts 36°
2026-05-05 04:10 40.30277 -74.38587 36926 ft 457 kts 34°
2026-05-05 04:10 40.35224 -74.33417 36925 ft 457 kts 35°
2026-05-05 04:11 40.40171 -74.28187 36934 ft 457 kts 36°
2026-05-05 04:11 40.45105 -74.22917 36933 ft 457 kts 36°
2026-05-05 04:12 40.49993 -74.17664 36931 ft 456 kts 36°
2026-05-05 04:12 40.54419 -74.11562 36924 ft 465 kts 53°
2026-05-05 04:13 40.57170 -74.03857 36923 ft 472 kts 68°
2026-05-05 04:13 40.59172 -73.95640 36933 ft 472 kts 70°
2026-05-05 04:14 40.61031 -73.87409 36934 ft 473 kts 71°
2026-05-05 04:14 40.63041 -73.79190 36933 ft 470 kts 64°
2026-05-05 04:15 40.64553 -73.75417 36935 ft 466 kts 53°
2026-05-05 04:15 40.66483 -73.72026 36935 ft 463 kts 47°
2026-05-05 04:15 40.70745 -73.65726 36936 ft 461 kts 43°
2026-05-05 04:16 40.75109 -73.59602 36935 ft 460 kts 43°
2026-05-05 04:16 40.79456 -73.53410 36939 ft 462 kts 43°
2026-05-05 04:17 40.83769 -73.47151 36757 ft 458 kts 44°
2026-05-05 04:17 40.85874 -73.44066 36404 ft 453 kts 44°
2026-05-05 04:17 40.87968 -73.40984 35914 ft 451 kts 44°
2026-05-05 04:18 40.90053 -73.37913 35273 ft 453 kts 44°
2026-05-05 04:18 40.92159 -73.34807 34537 ft 456 kts 45°
2026-05-05 04:18 40.94265 -73.31696 33739 ft 457 kts 45°
2026-05-05 04:18 40.96376 -73.28576 32954 ft 459 kts 45°
2026-05-05 04:19 40.98502 -73.25427 32151 ft 460 kts 45°
2026-05-05 04:19 41.00635 -73.22260 31332 ft 462 kts 45°
2026-05-05 04:19 41.02750 -73.19116 30498 ft 464 kts 45°
2026-05-05 04:19 41.04910 -73.15906 29608 ft 466 kts 45°
2026-05-05 04:20 41.07048 -73.12724 28710 ft 468 kts 45°
2026-05-05 04:20 41.09188 -73.09538 27782 ft 470 kts 45°
2026-05-05 04:20 41.11372 -73.06280 26792 ft 473 kts 45°
2026-05-05 04:20 41.13567 -73.03005 25757 ft 477 kts 45°
2026-05-05 04:21 41.15737 -72.99761 24709 ft 481 kts 45°
2026-05-05 04:21 41.17906 -72.96373 23629 ft 485 kts 48°
2026-05-05 04:21 41.19911 -72.92847 23113 ft 477 kts 51°
2026-05-05 04:21 41.21730 -72.89217 22926 ft 469 kts 55°
2026-05-05 04:22 41.23409 -72.85448 22905 ft 475 kts 57°
2026-05-05 04:22 41.25000 -72.81585 22910 ft 478 kts 59°
2026-05-05 04:22 41.26526 -72.77711 22919 ft 478 kts 60°
2026-05-05 04:22 41.28041 -72.73770 22920 ft 477 kts 60°
2026-05-05 04:23 41.29523 -72.69871 22925 ft 478 kts 60°
2026-05-05 04:23 41.31023 -72.65903 22923 ft 477 kts 60°
2026-05-05 04:23 41.32497 -72.61999 22927 ft 478 kts 60°
2026-05-05 04:23 41.34002 -72.58008 22927 ft 478 kts 60°
2026-05-05 04:24 41.35492 -72.54060 22933 ft 478 kts 60°
2026-05-05 04:24 41.36965 -72.50156 22932 ft 479 kts 60°
2026-05-05 04:24 41.38463 -72.46188 22932 ft 479 kts 60°
2026-05-05 04:25 41.41449 -72.38273 22944 ft 479 kts 60°
2026-05-05 04:25 41.42936 -72.34326 22942 ft 479 kts 60°
2026-05-05 04:25 41.44430 -72.30355 22939 ft 479 kts 61°
2026-05-05 04:25 41.45916 -72.26402 22939 ft 478 kts 61°
2026-05-05 04:26 41.47397 -72.22454 22954 ft 480 kts 61°
2026-05-05 04:26 41.48875 -72.18497 22957 ft 479 kts 61°
2026-05-05 04:26 41.50338 -72.14540 22963 ft 480 kts 61°
2026-05-05 04:26 41.51805 -72.10533 22960 ft 479 kts 61°
2026-05-05 04:27 41.53273 -72.06508 22965 ft 480 kts 61°
2026-05-05 04:27 41.54722 -72.02523 22977 ft 480 kts 61°
2026-05-05 04:27 41.56162 -71.98523 22974 ft 481 kts 62°
2026-05-05 04:27 41.57521 -71.94427 22657 ft 482 kts 64°
2026-05-05 04:28 41.58764 -71.90356 22108 ft 476 kts 66°
2026-05-05 04:28 41.59957 -71.86272 21487 ft 470 kts 66°
2026-05-05 04:28 41.61115 -71.82225 20842 ft 466 kts 66°
2026-05-05 04:28 41.62263 -71.78189 20194 ft 461 kts 66°
2026-05-05 04:29 41.63387 -71.74247 19676 ft 454 kts 66°
2026-05-05 04:29 41.64503 -71.70347 19402 ft 441 kts 66°
2026-05-05 04:29 41.65577 -71.66608 19244 ft 425 kts 66°
2026-05-05 04:29 41.66616 -71.63004 19094 ft 411 kts 66°
2026-05-05 04:30 41.67624 -71.59521 18891 ft 399 kts 66°
2026-05-05 04:30 41.68628 -71.56062 18449 ft 395 kts 66°
2026-05-05 04:30 41.69616 -71.52667 17920 ft 388 kts 66°
2026-05-05 04:30 41.70576 -71.49371 17500 ft 377 kts 66°
2026-05-05 04:31 41.71512 -71.46156 17078 ft 368 kts 65°
2026-05-05 04:31 41.72468 -71.43058 16626 ft 360 kts 62°
2026-05-05 04:31 41.73589 -71.40059 16165 ft 358 kts 58°
2026-05-05 04:31 41.74796 -71.37210 15721 ft 356 kts 56°
2026-05-05 04:32 41.76046 -71.34386 15265 ft 350 kts 56°
2026-05-05 04:32 41.77275 -71.31617 14832 ft 345 kts 57°
2026-05-05 04:32 41.78487 -71.28854 14383 ft 344 kts 57°
2026-05-05 04:32 41.79692 -71.26070 13943 ft 342 kts 57°
2026-05-05 04:33 41.80860 -71.23344 13506 ft 342 kts 58°
2026-05-05 04:33 41.82044 -71.20565 13066 ft 340 kts 58°
2026-05-05 04:33 41.83201 -71.17844 12642 ft 339 kts 58°
2026-05-05 04:33 41.84372 -71.15084 12196 ft 337 kts 58°
2026-05-05 04:34 41.85506 -71.12408 12005 ft 327 kts 58°
2026-05-05 04:34 41.86616 -71.09804 11805 ft 319 kts 58°
2026-05-05 04:34 41.87715 -71.07259 11556 ft 313 kts 57°
2026-05-05 04:34 41.88812 -71.04734 11302 ft 310 kts 57°
2026-05-05 04:35 41.89886 -71.02261 11054 ft 309 kts 58°
2026-05-05 04:35 41.90967 -70.99763 10805 ft 308 kts 58°
2026-05-05 04:35 41.92035 -70.97285 10554 ft 307 kts 58°
2026-05-05 04:35 41.93091 -70.94832 10306 ft 306 kts 58°
2026-05-05 04:36 41.94160 -70.92348 10059 ft 303 kts 58°
2026-05-05 04:36 41.95191 -70.89946 10006 ft 291 kts 58°
2026-05-05 04:36 41.96186 -70.87627 10010 ft 291 kts 58°
2026-05-05 04:36 41.97200 -70.85268 10011 ft 293 kts 58°
2026-05-05 04:37 41.98225 -70.82883 10012 ft 292 kts 58°
2026-05-05 04:37 41.99244 -70.80514 9993 ft 293 kts 58°
2026-05-05 04:37 42.00256 -70.78152 9755 ft 293 kts 58°
2026-05-05 04:37 42.01338 -70.75853 9506 ft 288 kts 51°
2026-05-05 04:38 42.02604 -70.73775 9252 ft 286 kts 46°
2026-05-05 04:38 42.03942 -70.71822 9003 ft 285 kts 44°
2026-05-05 04:38 42.05298 -70.69880 8752 ft 284 kts 44°
2026-05-05 04:38 42.06633 -70.67933 8501 ft 282 kts 45°
2026-05-05 04:39 42.07943 -70.65990 8251 ft 282 kts 46°
2026-05-05 04:39 42.09253 -70.64035 8027 ft 280 kts 46°
2026-05-05 04:39 42.10622 -70.62218 8007 ft 277 kts 36°
2026-05-05 04:39 42.12315 -70.60995 7910 ft 277 kts 14°
2026-05-05 04:40 42.14187 -70.60444 7657 ft 273 kts
2026-05-05 04:40 42.16060 -70.60059 7402 ft 270 kts
2026-05-05 04:40 42.17919 -70.59644 7167 ft 271 kts
2026-05-05 04:40 42.19773 -70.59167 6903 ft 271 kts
2026-05-05 04:41 42.21630 -70.58649 6654 ft 270 kts
2026-05-05 04:41 42.23454 -70.58128 6421 ft 270 kts
2026-05-05 04:41 42.25304 -70.57598 6228 ft 271 kts
2026-05-05 04:41 42.27193 -70.57064 5924 ft 281 kts
2026-05-05 04:42 42.29105 -70.56528 5578 ft 282 kts
2026-05-05 04:42 42.31021 -70.56096 5225 ft 280 kts 360°
2026-05-05 04:42 42.32918 -70.56355 4978 ft 266 kts 334°
2026-05-05 04:42 42.34428 -70.57727 4988 ft 260 kts 311°
2026-05-05 04:43 42.35697 -70.59467 4981 ft 260 kts 309°
2026-05-05 04:43 42.36943 -70.61207 4980 ft 260 kts 309°
2026-05-05 04:43 42.38229 -70.62941 4970 ft 261 kts 310°
2026-05-05 04:43 42.39526 -70.64651 4977 ft 261 kts 311°
2026-05-05 04:44 42.40838 -70.66372 4984 ft 261 kts 311°
2026-05-05 04:44 42.42119 -70.68051 4983 ft 260 kts 311°
2026-05-05 04:44 42.43435 -70.69785 4991 ft 262 kts 311°
2026-05-05 04:44 42.44733 -70.71496 4973 ft 260 kts 310°
2026-05-05 04:45 42.46029 -70.73202 4975 ft 261 kts 310°
2026-05-05 04:45 42.47314 -70.74895 4974 ft 259 kts 310°
2026-05-05 04:45 42.48614 -70.76611 4973 ft 258 kts 310°
2026-05-05 04:45 42.49868 -70.78262 4972 ft 244 kts 310°
2026-05-05 04:46 42.51047 -70.79802 4974 ft 231 kts 311°
2026-05-05 04:46 42.52328 -70.81086 4976 ft 234 kts 328°
2026-05-05 04:46 42.53982 -70.81471 4981 ft 249 kts
2026-05-05 04:46 42.55672 -70.80811 4981 ft 255 kts 17°
2026-05-05 04:47 42.57305 -70.79916 4978 ft 254 kts 18°
2026-05-05 04:47 42.58939 -70.79040 4980 ft 254 kts 17°
2026-05-05 04:47 42.60605 -70.78190 4978 ft 252 kts 16°
2026-05-05 04:47 42.62213 -70.77357 4983 ft 243 kts 17°
2026-05-05 04:48 42.63786 -70.76533 4754 ft 242 kts 16°
2026-05-05 04:48 42.65358 -70.75713 4467 ft 244 kts 16°
2026-05-05 04:48 42.66914 -70.74921 4358 ft 234 kts 13°
2026-05-05 04:48 42.68453 -70.74633 4264 ft 211 kts 343°
2026-05-05 04:49 42.69672 -70.75399 4126 ft 185 kts 307°
2026-05-05 04:49 42.70213 -70.76861 3879 ft 168 kts 268°
2026-05-05 04:49 42.69906 -70.78324 3629 ft 161 kts 237°
2026-05-05 04:49 42.69281 -70.79554 3393 ft 159 kts 235°
2026-05-05 04:50 42.68648 -70.80794 3159 ft 157 kts 236°
2026-05-05 04:50 42.68046 -70.81991 2984 ft 154 kts 236°
2026-05-05 04:50 42.67439 -70.83199 2971 ft 153 kts 235°
2026-05-05 04:50 42.66795 -70.84366 2967 ft 157 kts 230°
2026-05-05 04:51 42.66023 -70.85393 2970 ft 155 kts 221°
2026-05-05 04:51 42.65118 -70.86232 2972 ft 158 kts 214°
2026-05-05 04:51 42.64130 -70.86923 2974 ft 161 kts 210°
2026-05-05 04:51 42.63102 -70.87530 2972 ft 160 kts 207°
2026-05-05 04:52 42.62062 -70.88085 2974 ft 160 kts 206°
2026-05-05 04:52 42.61018 -70.88615 2974 ft 162 kts 206°
2026-05-05 04:52 42.59958 -70.89141 2972 ft 161 kts 206°
2026-05-05 04:52 42.58899 -70.89663 2972 ft 162 kts 205°
2026-05-05 04:53 42.57840 -70.90178 2975 ft 162 kts 206°
2026-05-05 04:53 42.56782 -70.90695 2973 ft 163 kts 206°
2026-05-05 04:53 42.55716 -70.91214 2975 ft 162 kts 206°
2026-05-05 04:53 42.54663 -70.91721 2974 ft 161 kts 205°
2026-05-05 04:54 42.53594 -70.92239 2972 ft 161 kts 205°
2026-05-05 04:54 42.52544 -70.92751 2973 ft 159 kts 206°
2026-05-05 04:54 42.51560 -70.93212 2983 ft 140 kts 205°
2026-05-05 04:54 42.50641 -70.93664 2864 ft 143 kts 207°
2026-05-05 04:55 42.49721 -70.94117 2613 ft 138 kts 206°
2026-05-05 04:55 42.48823 -70.94553 2441 ft 137 kts 206°
2026-05-05 04:55 42.47928 -70.94989 2245 ft 135 kts 205°
2026-05-05 04:55 42.47043 -70.95396 2066 ft 134 kts 206°
2026-05-05 04:56 42.46208 -70.95816 1887 ft 122 kts 207°
2026-05-05 04:56 42.45427 -70.96196 1718 ft 119 kts 207°
2026-05-05 04:56 42.44634 -70.96585 1561 ft 122 kts 206°
2026-05-05 04:56 42.43835 -70.96963 1386 ft 121 kts 206°
2026-05-05 04:57 42.43020 -70.97368 1215 ft 125 kts 204°
2026-05-05 04:57 42.42195 -70.97750 1049 ft 125 kts 204°
2026-05-05 04:57 42.41375 -70.98154 889 ft 128 kts 205°
2026-05-05 04:57 42.40537 -70.98567 693 ft 129 kts 202°
2026-05-05 04:58 42.39685 -70.98966 549 ft 128 kts 203°
2026-05-05 04:58 42.38835 -70.99380 360 ft 130 kts 202°
2026-05-05 04:58 42.37985 -70.99780 163 ft 131 kts 202°
2026-05-05 04:58 42.37134 -71.00197 38 ft 128 kts 202°
2026-05-05 04:59 42.36367 -71.00573 15 ft 91 kts 199°
2026-05-05 04:59 42.35979 -71.00764 16 ft 35 kts 201°
2026-05-05 04:59 42.35765 -71.00863 18 ft 31 kts 198°
2026-05-05 04:59 42.35625 -71.00980 18 ft 19 kts 261°
2026-05-05 05:00 42.35659 -71.01142 20 ft 15 kts 296°
2026-05-05 05:00 42.35720 -71.01260 21 ft 14 kts 304°
2026-05-05 05:00 42.35763 -71.01379 21 ft 14 kts 291°
2026-05-05 05:00 42.35794 -71.01504 21 ft 13 kts 287°
2026-05-05 05:01 42.35861 -71.01572 20 ft 12 kts 340°
2026-05-05 05:01 42.35929 -71.01622 19 ft 10 kts 18°
2026-05-05 05:01 42.35999 -71.01592 18 ft 11 kts 18°
2026-05-05 05:01 42.36056 -71.01581 18 ft 6 kts 324°
2026-05-05 05:02 42.36076 -71.01630 18 ft 5 kts 293°
2026-05-05 05:02 42.36086 -71.01668 18 ft 2 kts 290°
2026-05-05 05:02 42.36087 -71.01670 18 ft 0 kts 290°